Tucumcari, NM

5:56 PM MDT on May 23, 2018 (GMT -0600)
Tucumcari Municipal

Weather History for KTCC - May, 2013

Change the Weather History Date:

Wednesday, May 1, 2013

  Actual Average Record
Temperature  
Mean Temperature 54 °F -  
Max Temperature 69 °F 75 °F 93 °F (1992)
Min Temperature 39 °F 45 °F 27 °F (1909)
Degree Days  
Heating Degree Days 12    
Growing Degree Days 4 (Base 50)    
Moisture  
Dew Point 29 °F    
Average Humidity 41    
Maximum Humidity 60    
Minimum Humidity 11    
Precipitation  
Precipitation 0.00 in - - ()
Sea Level Pressure  
Sea Level Pressure 29.95 in    
Wind  
Wind Speed 25 mph (NE)    
Max Wind Speed 32 mph    
Max Gust Speed 41 mph    
Visibility 9 miles    
Events      
Averages and records for this station are not official NWS values.
T = Trace of Precipitation, MM = Missing Value Source: NWS Daily Summary

Daily Weather History Graph

Daily Weather History Graph

Search for Another Location

Airport or City:

Astronomy

May. 01, 2013 Rise Set
Actual Time 6:02 AM MDT 7:40 PM MDT
Civil Twilight 5:35 AM MDT 8:07 PM MDT
Nautical Twilight 5:03 AM MDT 8:40 PM MDT
Astronomical Twilight 4:28 AM MDT 9:14 PM MDT
Moon 12:51 AM MDT (5/1) 11:43 AM MDT (5/1)
Length of Visible Light 14h 31m
Length of Day
13h 37m
Waning Gibbous, 58% of the Moon is Illuminated
May 1
Waning Gibbous
May 2
Last Quarter
May 9
New
May 17
First Quarter
May 24
Full

Hourly Weather History & Observations

Time (MDT) Temp. Windchill Dew Point Humidity Pressure Visibility Wind Dir Wind Speed Gust Speed Precip Events Conditions
12:53 AM 66.0 °F - 12.0 °F 12% 29.48 in 10.0 mi North - - N/A   Clear
1:53 AM 63.0 °F - 10.9 °F 13% 29.50 in 10.0 mi North - - N/A   Clear
2:53 AM 68.0 °F - 10.9 °F 11% 29.50 in 10.0 mi North - - N/A   Clear
3:53 AM 63.0 °F - 26.1 °F 25% 29.58 in 10.0 mi North - - N/A   Clear
4:53 AM 60.1 °F - 39.0 °F 46% 29.65 in 10.0 mi North - - N/A   Clear
5:53 AM 57.9 °F - 37.0 °F 46% 29.71 in 10.0 mi North - - N/A   Clear
6:53 AM 55.0 °F - 30.9 °F 40% 29.78 in 8.0 mi North - - N/A   Clear
7:53 AM 54.0 °F - 28.0 °F 37% 29.86 in 10.0 mi North - - N/A   Clear
8:53 AM 55.0 °F - 33.1 °F 43% 29.90 in 10.0 mi North - - N/A   Clear
9:53 AM 59.0 °F - 34.0 °F 39% 29.92 in 10.0 mi NE 24.2 mph 28.8 mph N/A   Clear
10:53 AM 60.1 °F - 34.0 °F 38% 29.94 in 10.0 mi NNE 23.0 mph 33.4 mph N/A   Clear
11:53 AM 63.0 °F - 35.1 °F 35% 29.95 in 10.0 mi ENE 20.7 mph 28.8 mph N/A   Clear
12:53 PM 63.0 °F - 35.1 °F 35% 29.95 in 10.0 mi NE 20.7 mph 32.2 mph N/A   Clear
3:53 PM 61.0 °F - 34.0 °F 36% 29.96 in 9.0 mi NE 26.5 mph 36.8 mph N/A   Clear
5:53 PM 53.1 °F - 33.1 °F 47% 30.06 in 10.0 mi NE 24.2 mph 36.8 mph N/A   Clear
6:53 PM 48.0 °F - 32.0 °F 54% 30.12 in 9.0 mi NE 32.2 mph 38.0 mph N/A   Overcast
7:24 PM 46.4 °F 37.5 °F 32.0 °F 57% 30.21 in 9.0 mi NE 27.6 mph 38.0 mph N/A   Overcast
7:53 PM 45.0 °F 35.2 °F 32.0 °F 60% 30.17 in 7.0 mi NE 29.9 mph 41.4 mph N/A   Overcast
8:53 PM 44.1 °F 34.0 °F 30.0 °F 58% 30.25 in 8.0 mi NE 29.9 mph 39.1 mph N/A   Overcast
9:48 PM 42.8 °F 32.9 °F 28.4 °F 57% 30.36 in 8.0 mi NNE 26.5 mph 39.1 mph N/A   Overcast
9:53 PM 43.0 °F 33.1 °F 27.0 °F 53% 30.30 in 7.0 mi NNE 26.5 mph 38.0 mph N/A   Overcast
10:53 PM 39.9 °F 28.4 °F 25.0 °F 55% 30.34 in 9.0 mi NNE 29.9 mph 36.8 mph N/A   Overcast
11:53 PM 39.0 °F 28.0 °F 25.0 °F 57% 30.36 in 10.0 mi NE 25.3 mph 32.2 mph N/A   Overcast